Asheville, NC

5:50 PM EST on February 23, 2018 (GMT -0500)
Asheville Regional

Weather History for KAVL - May, 2007

Change the Weather History Date:

Tuesday, May 8, 2007

  Actual Average Record
Temperature  
Mean Temperature 56 °F 61 °F  
Max Temperature 75 °F 73 °F 90 °F (1964)
Min Temperature 36 °F 49 °F 28 °F (1989)
Degree Days  
Heating Degree Days 9 5  
Month to date heating degree days 39 43  
Since 1 July heating degree days 3980 4115  
Cooling Degree Days 0 1  
Month to date cooling degree days 6 7  
Year to date cooling degree days 7 15  
Growing Degree Days 6 (Base 50)    
Moisture  
Dew Point 42 °F    
Average Humidity 55    
Maximum Humidity 85    
Minimum Humidity 24    
Precipitation  
Precipitation 0.00 in 0.11 in 1.71 in (1973)
Month to date precipitation 0.94 0.91  
Year to date precipitation 11.80 15.50  
Snow  
Snow 0.00 in 0.00 in T in (1960)
Month to date snowfall 0.0 0.0  
Since 1 July snowfall 3.2 9.9  
Snow Depth -    
Sea Level Pressure  
Sea Level Pressure 30.13 in    
Wind  
Wind Speed 5 mph (NE)    
Max Wind Speed 14 mph    
Max Gust Speed 20 mph    
Visibility 10 miles    
Events      
T = Trace of Precipitation, MM = Missing Value Source: NWS Daily Summary

Daily Weather History Graph

Daily Weather History Graph

Search for Another Location

Airport or City:

Trip Planner

Search our weather history database for the weather conditions in past years. The results will help you decide how hot, cold, wet, or windy it might be!

Date:

Astronomy

May. 08, 2007 Rise Set
Actual Time 6:31 AM EDT 8:21 PM EDT
Civil Twilight 6:04 AM EDT 8:49 PM EDT
Nautical Twilight 5:30 AM EDT 9:23 PM EDT
Astronomical Twilight 4:54 AM EDT 9:59 PM EDT
Moon 1:30 AM EDT (5/8) 11:16 AM EDT (5/8)
Length of Visible Light 14h 45m
Length of Day
13h 50m
Waning Gibbous, 66% of the Moon is Illuminated
May 8
Waning Gibbous
May 10
Last Quarter
May 16
New
May 23
First Quarter
May 31
Full

Hourly Weather History & Observations

Time (EDT) Temp. Dew Point Humidity Pressure Visibility Wind Dir Wind Speed Gust Speed Precip Events Conditions
12:54 AM 45.0 °F 37.9 °F 76% 30.24 in 10.0 mi Calm Calm - N/A   Clear
1:54 AM 46.0 °F 36.0 °F 68% 30.21 in 10.0 mi Calm Calm - N/A   Clear
2:54 AM 44.1 °F 36.0 °F 73% 30.19 in 10.0 mi Calm Calm - N/A   Clear
3:54 AM 46.9 °F 30.0 °F 52% 30.17 in 10.0 mi Calm Calm - N/A   Clear
4:54 AM 39.9 °F 35.1 °F 83% 30.18 in 10.0 mi Calm Calm - N/A   Clear
5:54 AM 37.9 °F 30.9 °F 76% 30.17 in 10.0 mi Calm Calm - N/A   Clear
8:54 AM 53.1 °F 34.0 °F 48% 30.19 in 10.0 mi NNW 6.9 mph - N/A   Clear
9:54 AM 60.1 °F 30.9 °F 33% 30.19 in 10.0 mi North 8.1 mph - N/A   Clear
10:54 AM 64.0 °F 27.0 °F 25% 30.19 in 10.0 mi NNW 6.9 mph - N/A   Clear
11:54 AM 68.0 °F 33.1 °F 27% 30.17 in 10.0 mi Variable 5.8 mph - N/A   Clear
12:54 PM 71.1 °F 45.0 °F 39% 30.14 in 10.0 mi Variable 5.8 mph - N/A   Partly Cloudy
1:54 PM 71.1 °F 48.0 °F 44% 30.12 in 10.0 mi ESE 8.1 mph - N/A   Scattered Clouds
2:54 PM 72.0 °F 48.0 °F 43% 30.09 in 10.0 mi Variable 5.8 mph - N/A   Clear
3:54 PM 75.0 °F 46.9 °F 37% 30.07 in 10.0 mi East 8.1 mph 18.4 mph N/A   Clear
4:54 PM 72.0 °F 46.9 °F 41% 30.07 in 10.0 mi NE 9.2 mph - N/A   Overcast
5:54 PM 71.1 °F 48.9 °F 45% 30.07 in 10.0 mi Variable 6.9 mph - N/A   Mostly Cloudy
6:54 PM 70.0 °F 50.0 °F 49% 30.07 in 10.0 mi East 6.9 mph - N/A   Mostly Cloudy
7:54 PM 69.1 °F 50.0 °F 51% 30.07 in 10.0 mi Variable 3.5 mph - N/A   Overcast
8:54 PM 66.9 °F 50.0 °F 54% 30.07 in 10.0 mi ENE 8.1 mph - N/A   Scattered Clouds
9:54 PM 62.1 °F 51.1 °F 67% 30.08 in 10.0 mi Calm Calm - N/A   Scattered Clouds
10:54 PM 63.0 °F 50.0 °F 63% 30.07 in 10.0 mi Calm Calm - N/A   Clear
11:54 PM 63.0 °F 51.1 °F 65% 30.05 in 10.0 mi Variable 5.8 mph - N/A   Clear